When you browse on this site, cookies collect data to enhance your experience and personalize the content and advertising you see.
Visit our Privacy Policy to learn more. By continuing to use the site, you agree to this use of cookies and data.
  • In Romania
  • List of Countries
  • For 7 days
  • Water Temperature
  • Satellite Maps
  • Weather Map
  • Weather Widgets
  • user-avatar
    Login

    Hourly Weather Marly-le-Roi

    Today, 23 April, Tuesday

    Time Temperature Precipitation Wind Pressure Humidity
    00:00 +18°C° 0 mm 1 mps 736 mmHg 66%
    01:00 +16°C° 0 mm 1 mps 736 mmHg 69%
    02:00 +16°C° 0 mm 1 mps 736 mmHg 71%
    03:00 +15°C° 0 mm 1 mps 736 mmHg 74%
    04:00 +15°C° 0 mm 1 mps 735 mmHg 74%
    05:00 +15°C° 0 mm 1 mps 735 mmHg 73%
    06:00 +14°C° 0 mm 0 mps 735 mmHg 73%
    07:00 +16°C° 0 mm 1 mps 735 mmHg 68%
    08:00 +18°C° 0 mm 1 mps 735 mmHg 63%
    09:00 +20°C° 0 mm 1 mps 735 mmHg 58%
    10:00 +21°C° 0 mm 1 mps 735 mmHg 54%
    11:00 +22°C° 0 mm 1 mps 735 mmHg 50%
    12:00 +24°C° 0 mm 1 mps 735 mmHg 46%
    13:00 +24°C° 0 mm 1 mps 734 mmHg 46%
    14:00 +24°C° 0 mm 1 mps 734 mmHg 46%
    15:00 +23°C° 0 mm 1 mps 733 mmHg 46%
    16:00 +23°C° 0 mm 1 mps 733 mmHg 50%
    17:00 +21°C° 0 mm 2 mps 733 mmHg 54%
    18:00 +20°C° 0 mm 2 mps 733 mmHg 57%
    19:00 +19°C° 0.1 mm 2 mps 733 mmHg 61%
    20:00 +19°C° 0.1 mm 2 mps 733 mmHg 65%
    21:00 +18°C° 0.1 mm 2 mps 733 mmHg 68%
    22:00 +17°C° 0 mm 3 mps 733 mmHg 69%
    23:00 +17°C° 0 mm 3 mps 733 mmHg 71%

    Tomorrow, 24 April, Wednesday

    Time Temperature Precipitation Wind Pressure Humidity
    00:00 +15°C° 0 mm 4 mps 733 mmHg 72%
    01:00 +15°C° 0 mm 4 mps 734 mmHg 76%
    02:00 +14°C° 0 mm 4 mps 734 mmHg 80%
    03:00 +13°C° 0 mm 4 mps 734 mmHg 84%
    04:00 +13°C° 0 mm 4 mps 734 mmHg 83%
    05:00 +13°C° 0 mm 5 mps 735 mmHg 82%
    06:00 +13°C° 0 mm 5 mps 735 mmHg 81%
    07:00 +13°C° 0.2 mm 5 mps 736 mmHg 78%
    08:00 +13°C° 0.2 mm 5 mps 736 mmHg 75%
    09:00 +13°C° 0.2 mm 5 mps 737 mmHg 73%
    10:00 +13°C° 0.4 mm 5 mps 737 mmHg 73%
    11:00 +13°C° 0.4 mm 4 mps 737 mmHg 73%
    12:00 +12°C° 0.4 mm 4 mps 737 mmHg 73%
    13:00 +13°C° 0.5 mm 5 mps 737 mmHg 68%
    14:00 +14°C° 0.5 mm 5 mps 738 mmHg 62%
    15:00 +15°C° 0.5 mm 6 mps 738 mmHg 57%
    16:00 +14°C° 0.3 mm 6 mps 738 mmHg 59%
    17:00 +14°C° 0.3 mm 5 mps 738 mmHg 61%
    18:00 +13°C° 0.3 mm 5 mps 738 mmHg 63%
    19:00 +13°C° 0 mm 5 mps 738 mmHg 64%
    20:00 +12°C° 0 mm 5 mps 738 mmHg 66%
    21:00 +12°C° 0 mm 4 mps 738 mmHg 67%
    22:00 +12°C° 0 mm 5 mps 738 mmHg 66%
    23:00 +12°C° 0 mm 5 mps 738 mmHg 64%

    Day after tomorrow, 25 April, Thursday

    Time Temperature Precipitation Wind Pressure Humidity
    00:00 +12°C° 0 mm 5 mps 737 mmHg 62%
    01:00 +12°C° 0.3 mm 5 mps 737 mmHg 66%
    02:00 +10°C° 0.3 mm 6 mps 737 mmHg 69%
    03:00 +10°C° 0.3 mm 7 mps 736 mmHg 73%
    04:00 +10°C° 0.2 mm 7 mps 737 mmHg 75%
    05:00 +10°C° 0.2 mm 8 mps 737 mmHg 77%
    06:00 +10°C° 0.2 mm 8 mps 737 mmHg 78%
    07:00 +11°C° 0 mm 8 mps 738 mmHg 72%
    08:00 +11°C° 0 mm 9 mps 739 mmHg 67%
    09:00 +12°C° 0 mm 9 mps 740 mmHg 61%
    10:00 +12°C° 0.1 mm 8 mps 740 mmHg 58%
    11:00 +13°C° 0.1 mm 8 mps 740 mmHg 55%
    12:00 +14°C° 0.1 mm 7 mps 741 mmHg 51%
    13:00 +14°C° 0.1 mm 7 mps 741 mmHg 53%
    14:00 +12°C° 0.1 mm 7 mps 742 mmHg 54%
    15:00 +13°C° 0.1 mm 6 mps 742 mmHg 55%
    16:00 +11°C° 0 mm 6 mps 743 mmHg 59%
    17:00 +11°C° 0 mm 6 mps 743 mmHg 62%
    18:00 +10°C° 0 mm 6 mps 743 mmHg 65%
    19:00 +9°C° 0 mm 5 mps 744 mmHg 68%
    20:00 +9°C° 0 mm 5 mps 744 mmHg 70%
    21:00 +8°C° 0 mm 5 mps 745 mmHg 73%
    22:00 +8°C° 0 mm 5 mps 745 mmHg 73%
    23:00 +8°C° 0 mm 5 mps 745 mmHg 74%

    26 April, Friday

    Time Temperature Precipitation Wind Pressure Humidity
    00:00 +8°C° 0 mm 5 mps 745 mmHg 74%
    01:00 +8°C° 0 mm 5 mps 745 mmHg 75%
    02:00 +8°C° 0 mm 5 mps 746 mmHg 76%
    03:00 +8°C° 0 mm 5 mps 746 mmHg 77%
    04:00 +7°C° 0 mm 6 mps 746 mmHg 76%
    05:00 +7°C° 0 mm 6 mps 746 mmHg 75%
    06:00 +7°C° 0 mm 6 mps 746 mmHg 74%
    07:00 +9°C° 0 mm 6 mps 746 mmHg 72%
    08:00 +10°C° 0 mm 6 mps 746 mmHg 70%
    09:00 +11°C° 0 mm 6 mps 747 mmHg 67%
    10:00 +13°C° 0.1 mm 6 mps 747 mmHg 65%
    11:00 +12°C° 0.1 mm 7 mps 747 mmHg 62%
    12:00 +14°C° 0.1 mm 7 mps 747 mmHg 60%
    13:00 +14°C° 0.6 mm 7 mps 747 mmHg 63%
    14:00 +14°C° 0.6 mm 7 mps 747 mmHg 66%
    15:00 +14°C° 0.6 mm 7 mps 747 mmHg 69%
    16:00 +13°C° 0.5 mm 6 mps 748 mmHg 70%
    17:00 +13°C° 0.5 mm 6 mps 748 mmHg 71%
    18:00 +11°C° 0.5 mm 6 mps 749 mmHg 72%
    19:00 +10°C° 0 mm 6 mps 750 mmHg 74%
    20:00 +9°C° 0 mm 6 mps 751 mmHg 76%
    21:00 +8°C° 0 mm 6 mps 752 mmHg 77%
    22:00 +7°C° 0 mm 5 mps 752 mmHg 76%
    23:00 +6°C° 0 mm 5 mps 753 mmHg 74%

    27 April, Saturday

    Time Temperature Precipitation Wind Pressure Humidity
    00:00 +6°C° 0 mm 4 mps 753 mmHg 72%
    01:00 +5°C° 0 mm 4 mps 753 mmHg 74%
    02:00 +5°C° 0 mm 4 mps 753 mmHg 76%
    03:00 +5°C° 0 mm 4 mps 754 mmHg 77%
    04:00 +5°C° 0.1 mm 5 mps 753 mmHg 78%
    05:00 +5°C° 0.1 mm 6 mps 753 mmHg 79%
    06:00 +5°C° 0.1 mm 6 mps 752 mmHg 79%
    07:00 +6°C° 0.1 mm 7 mps 752 mmHg 79%
    08:00 +8°C° 0.1 mm 7 mps 752 mmHg 80%
    09:00 +9°C° 0.1 mm 7 mps 752 mmHg 80%
    10:00 +10°C° 0.3 mm 8 mps 752 mmHg 73%
    11:00 +11°C° 0.3 mm 8 mps 752 mmHg 66%
    12:00 +12°C° 0.3 mm 8 mps 752 mmHg 59%
    13:00 +12°C° 0 mm 9 mps 752 mmHg 55%
    14:00 +12°C° 0 mm 9 mps 752 mmHg 50%
    15:00 +11°C° 0 mm 9 mps 753 mmHg 46%
    16:00 +11°C° 0 mm 8 mps 753 mmHg 51%
    17:00 +10°C° 0 mm 7 mps 754 mmHg 56%
    18:00 +9°C° 0 mm 6 mps 754 mmHg 60%
    19:00 +8°C° 0 mm 6 mps 755 mmHg 64%
    20:00 +7°C° 0 mm 5 mps 756 mmHg 68%
    21:00 +7°C° 0 mm 4 mps 757 mmHg 73%
    22:00 +6°C° 0 mm 4 mps 757 mmHg 76%
    23:00 +6°C° 0 mm 4 mps 757 mmHg 79%

    28 April, Sunday

    Time Temperature Precipitation Wind Pressure Humidity
    00:00 +6°C° 0 mm 4 mps 758 mmHg 82%
    01:00 +5°C° 0 mm 3 mps 758 mmHg 83%
    02:00 +5°C° 0 mm 3 mps 758 mmHg 85%
    03:00 +6°C° 0 mm 2 mps 758 mmHg 86%
    04:00 +7°C° 0 mm 2 mps 758 mmHg 84%
    05:00 +7°C° 0 mm 2 mps 758 mmHg 82%
    06:00 +7°C° 0 mm 2 mps 758 mmHg 80%
    07:00 +8°C° 0 mm 2 mps 758 mmHg 77%
    08:00 +9°C° 0 mm 2 mps 758 mmHg 73%
    09:00 +10°C° 0 mm 2 mps 758 mmHg 70%
    10:00 +10°C° 0 mm 2 mps 758 mmHg 68%
    11:00 +10°C° 0 mm 2 mps 758 mmHg 65%
    12:00 +12°C° 0 mm 2 mps 758 mmHg 63%
    13:00 +12°C° 0 mm 1 mps 757 mmHg 62%
    14:00 +13°C° 0 mm 1 mps 757 mmHg 61%
    15:00 +13°C° 0 mm 1 mps 756 mmHg 60%
    16:00 +13°C° 0 mm 1 mps 756 mmHg 63%
    17:00 +13°C° 0 mm 1 mps 756 mmHg 66%
    18:00 +12°C° 0 mm 0 mps 756 mmHg 69%
    19:00 +11°C° 0 mm 0 mps 756 mmHg 72%
    20:00 +12°C° 0 mm 1 mps 756 mmHg 76%
    21:00 +11°C° 0 mm 1 mps 756 mmHg 79%
    22:00 +11°C° 0 mm 1 mps 755 mmHg 80%
    23:00 +10°C° 0 mm 1 mps 755 mmHg 82%
    Show more